EW3013 Weather Reports


Display with metric or nautical units.
time (UTC)temp
F
wind
direction
speed
MPH
gust
MPH
rain 1hr
in
rain 24hr
in
rain mn
in
humidity
%
barometer
mb
20260510103121 49 351 2.0 4.0 0.00 0.00 0.00 98 1010.7
20260510102121 49 20 1.0 2.0 0.00 0.00 0.00 98 1010.5
20260510101142 49 21 2.0 3.0 0.00 0.00 0.00 98 1010.2
20260510100121 49 234 2.0 3.0 0.00 0.00 0.00 98 1010.3
20260510095121 49 92 2.0 3.0 0.00 0.00 0.00 98 1010.0
20260510094121 49 72 1.0 4.0 0.00 0.00 0.00 98 1010.0
20260510093121 50 107 3.0 6.0 0.00 0.00 0.00 98 1009.9
20260510092121 50 38 4.0 7.0 0.00 0.00 0.00 98 1010.0
20260510091121 50 25 2.0 4.0 0.00 0.00 0.00 98 1009.8
20260510090121 50 68 1.0 4.0 0.00 0.00 0.00 98 1009.6
20260510085122 50 84 1.0 3.0 0.00 0.00 0.00 97 1009.8
20260510084143 50 139 2.0 5.0 0.00 0.00 0.00 98 1009.9
20260510083143 50 160 2.0 4.0 0.00 0.00 0.00 97 1009.8
20260510082122 50 198 3.0 5.0 0.00 0.00 0.00 97 1009.8
20260510081122 49 314 2.0 4.0 0.00 0.00 0.00 96 1009.5
20260510080122 48 193 2.0 6.0 0.00 0.00 0.00 96 1010.3
20260510075122 47 92 0.0 1.0 0.00 0.00 0.00 97 1009.4
20260510074121 47 141 0.0 1.0 0.00 0.00 0.00 97 1009.4
20260510073143 47 154 0.0 2.0 0.00 0.00 0.00 97 1009.4
20260510072121 47 151 1.0 2.0 0.00 0.00 0.00 97 1009.2
20260510071122 47 166 3.0 5.0 0.00 0.00 0.00 97 1009.2
20260510070122 47 18 0.0 1.0 0.00 0.00 0.00 97 1009.3
20260510065121 48 61 0.0 0.0 0.00 0.00 0.00 97 1009.1
20260510064122 48 88 1.0 2.0 0.00 0.00 0.00 97 1009.1
20260510063122 48 242 0.0 1.0 0.00 0.00 0.00 97 1009.0
20260510062143 48 116 0.0 0.0 0.00 0.00 0.00 97 1008.9
20260510061122 48 308 0.0 0.0 0.00 0.00 0.00 97 1008.9
20260510060122 48 321 0.0 0.0 0.00 0.00 0.00 96 1008.9
20260510055122 48 156 0.0 1.0 0.00 0.00 0.00 96 1009.0
20260510054122 48 128 0.0 0.0 0.00 0.00 0.00 96 1009.2
20260510053143 48 303 0.0 0.0 0.00 0.00 0.00 96 1009.2
20260510052122 49 31 0.0 0.0 0.00 0.00 0.00 96 1009.3
20260510051141 49 31 0.0 0.0 0.00 0.00 0.00 96 1009.2
20260510050121 49 229 0.0 0.0 0.00 0.00 0.00 96 1009.2
20260510045121 49 229 0.0 0.0 0.00 0.00 0.00 96 1009.3
20260510044120 49 49 0.0 0.0 0.00 0.00 0.00 96 1009.4
20260510043121 49 33 0.0 1.0 0.00 0.00 0.00 96 1009.4
20260510042121 49 153 0.0 0.0 0.00 0.00 0.00 96 1009.4
20260510041120 50 185 0.0 0.0 0.00 0.00 0.00 96 1009.4
20260510040120 50 36 0.0 1.0 0.00 0.00 0.00 96 1009.5
20260510035121 50 146 0.0 1.0 0.00 0.00 0.20 96 1009.5
20260510034142 50 61 0.0 0.0 0.00 0.00 0.20 96 1009.5
20260510033121 50 140 0.0 1.0 0.00 0.00 0.20 95 1009.4
20260510032142 50 153 0.0 0.0 0.00 0.00 0.20 95 1009.4
20260510031121 51 128 0.0 0.0 0.00 0.00 0.20 95 1009.3
20260510030142 51 167 0.0 0.0 0.00 0.00 0.20 95 1009.3
20260510025142 51 159 0.0 1.0 0.00 0.00 0.20 95 1009.2
20260510024122 51 198 0.0 1.0 0.00 0.00 0.18 95 1009.0
20260510023142 51 314 0.0 0.0 0.00 0.00 0.18 95 1009.1
20260510022121 51 141 0.0 0.0 0.00 0.00 0.18 95 1009.1
20260510021120 52 134 0.0 0.0 0.00 0.00 0.18 94 1009.2
20260510020142 51 216 0.0 1.0 0.00 0.00 0.18 94 1009.0
20260510015142 52 128 0.0 1.0 0.00 0.00 0.18 94 1009.0
20260510014121 52 307 0.0 1.0 0.00 0.00 0.18 94 1008.9
20260510013121 52 178 0.0 1.0 0.00 0.00 0.18 93 1008.8
20260510012121 53 43 0.0 0.0 0.00 0.00 0.18 93 1008.7
20260510011143 53 149 0.0 1.0 0.00 0.00 0.18 93 1008.8
20260510010121 54 134 0.0 0.0 0.00 0.00 0.18 92 1008.5
20260510005142 54 355 0.0 1.0 0.00 0.00 0.18 92 1008.4
20260510004121 54 334 0.0 1.0 0.00 0.00 0.18 92 1008.5
20260510003121 55 211 1.0 2.0 0.00 0.00 0.18 92 1008.3
20260510002121 55 118 0.0 2.0 0.00 0.00 0.18 91 1008.1
20260510001121 56 15 0.0 2.0 0.00 0.00 0.18 90 1008.3
20260510000142 57 73 0.0 3.0 0.00 0.00 0.18 89 1008.2
20260509235121 57 207 1.0 3.0 0.00 0.00 0.18 88 1008.1
20260509234121 57 107 1.0 3.0 0.00 0.00 0.18 87 1008.3
20260509233121 58 146 1.0 2.0 0.00 0.00 0.18 86 1008.2
20260509232121 58 103 1.0 3.0 0.00 0.00 0.18 87 1008.1
20260509231122 58 188 1.0 3.0 0.00 0.00 0.18 87 1008.2
20260509230121 58 106 1.0 3.0 0.00 0.00 0.18 87 1008.2
20260509225122 59 82 1.0 2.0 0.00 0.00 0.18 84 1008.0
20260509224121 59 75 1.0 4.0 0.00 0.00 0.18 83 1008.1
20260509223142 59 171 1.0 3.0 0.00 0.00 0.18 85 1008.0
20260509222121 60 204 1.0 3.0 0.00 0.00 0.18 85 1008.2
20260509221121 59 169 2.0 4.0 0.00 0.00 0.18 85 1008.2
20260509220122 59 170 1.0 4.0 0.00 0.00 0.18 86 1008.1
20260509215142 59 75 1.0 3.0 0.00 0.00 0.18 85 1008.0
20260509214122 60 329 1.0 2.0 0.00 0.00 0.18 83 1008.0
20260509213142 59 32 1.0 4.0 0.00 0.00 0.18 85 1008.1
20260509212142 59 174 1.0 4.0 0.00 0.00 0.18 88 1008.2
20260509211121 58 117 1.0 3.0 0.00 0.00 0.18 87 1008.3
20260509210121 58 97 1.0 3.0 0.00 0.00 0.18 87 1008.3
20260509205122 58 95 0.0 3.0 0.00 0.00 0.18 87 1008.3
20260509204121 58 100 2.0 4.0 0.00 0.00 0.18 86 1008.3
20260509203121 58 91 1.0 3.0 0.00 0.00 0.18 85 1008.4
20260509202121 58 93 2.0 5.0 0.00 0.00 0.18 87 1008.4
20260509201121 58 85 1.0 3.0 0.00 0.00 0.18 88 1008.3
20260509200121 57 88 1.0 4.0 0.00 0.00 0.16 86 1008.3
20260509195121 57 70 2.0 6.0 0.00 0.00 0.16 88 1008.3
20260509194142 57 92 3.0 4.0 0.00 0.00 0.16 88 1008.3
20260509193121 57 91 2.0 4.0 0.00 0.00 0.16 86 1008.5
20260509192121 57 155 0.0 2.0 0.00 0.00 0.15 86 1008.9
20260509191121 56 98 1.0 3.0 0.00 0.00 0.14 85 1009.2
20260509190142 56 67 2.0 5.0 0.00 0.00 0.14 86 1009.2
20260509185121 56 138 1.0 2.0 0.00 0.00 0.12 86 1009.4
20260509184121 56 131 1.0 2.0 0.00 0.00 0.12 86 1009.6
20260509183121 56 181 1.0 2.0 0.00 0.00 0.12 84 1009.6
20260509182121 56 260 1.0 3.0 0.00 0.00 0.11 83 1009.7
20260509181122 56 328 1.0 3.0 0.00 0.00 0.11 82 1009.8
20260509180121 56 293 1.0 3.0 0.00 0.00 0.11 81 1009.8
20260509175123 57 286 0.0 3.0 0.00 0.00 0.11 83 1009.9
20260509174121 57 275 1.0 4.0 0.00 0.00 0.11 82 1010.0
20260509173121 57 229 1.0 2.0 0.00 0.00 0.11 83 1010.0
20260509172121 57 322 0.0 2.0 0.00 0.00 0.11 83 1010.0
20260509171142 57 358 0.0 1.0 0.00 0.00 0.11 86 1010.1
20260509170122 57 278 0.0 2.0 0.00 0.00 0.10 84 1009.9
20260509165122 57 358 0.0 2.0 0.00 0.00 0.10 83 1009.8
20260509164122 58 264 0.0 2.0 0.00 0.00 0.09 81 1009.9
20260509163122 58 40 0.0 2.0 0.00 0.00 0.09 80 1009.6
20260509162121 59 105 1.0 3.0 0.00 0.00 0.09 81 1009.5
20260509161122 58 61 0.0 1.0 0.00 0.00 0.09 84 1009.8
20260509160122 58 165 0.0 1.0 0.00 0.00 0.09 85 1010.2
20260509154121 57 339 1.0 2.0 0.00 0.00 0.08 85 1010.4
20260509153122 58 295 1.0 3.0 0.00 0.00 0.07 85 1010.5
20260509152122 58 248 1.0 2.0 0.00 0.00 0.05 84 1010.8
20260509151142 58 268 1.0 3.0 0.00 0.00 0.05 83 1010.6
20260509150122 58 290 1.0 3.0 0.00 0.00 0.04 82 1010.7
20260509145122 58 237 1.0 4.0 0.00 0.00 0.03 80 1010.4
20260509144122 59 245 1.0 3.0 0.00 0.00 0.02 79 1010.6
20260509143122 60 232 1.0 3.0 0.00 0.00 0.01 76 1010.5
20260509142122 60 232 2.0 5.0 0.00 0.00 0.00 74 1010.3
20260509141122 60 222 1.0 4.0 0.00 0.00 0.00 74 1010.2
20260509140122 60 193 1.0 3.0 0.00 0.00 0.00 74 1010.0
20260509135122 60 169 1.0 4.0 0.00 0.00 0.00 75 1009.9
20260509134143 59 237 0.0 2.0 0.00 0.00 0.00 75 1009.9
20260509133122 59 207 1.0 3.0 0.00 0.00 0.00 75 1010.0
20260509132122 58 155 2.0 4.0 0.00 0.00 0.00 76 1009.9
20260509131120 58 282 1.0 4.0 0.00 0.00 0.00 77 1009.8
20260509130120 57 234 1.0 2.0 0.00 0.00 0.00 77 1009.8
20260509125141 56 101 1.0 3.0 0.00 0.00 0.00 78 1009.9
20260509124141 56 104 1.0 3.0 0.00 0.00 0.00 79 1009.9
20260509123121 55 56 2.0 3.0 0.00 0.00 0.00 80 1010.1
20260509122120 55 188 1.0 3.0 0.00 0.00 0.00 81 1010.0
20260509121121 54 21 1.0 3.0 0.00 0.00 0.00 82 1010.1
20260509120121 54 158 1.0 2.0 0.00 0.00 0.00 82 1010.0
20260509115121 53 326 0.0 2.0 0.00 0.00 0.00 83 1010.0
20260509114120 53 195 0.0 3.0 0.00 0.00 0.00 82 1009.9
20260509113120 53 178 2.0 3.0 0.00 0.00 0.00 83 1009.8
20260509112121 52 181 2.0 4.0 0.00 0.00 0.00 83 1010.0
20260509111142 52 224 2.0 4.0 0.00 0.00 0.00 83 1009.9
20260509110121 52 66 1.0 3.0 0.00 0.00 0.00 83 1009.7
20260509105121 52 255 0.0 3.0 0.00 0.00 0.00 83 1009.8
20260509104121 52 326 0.0 2.0 0.00 0.00 0.00 83 1009.6